Location: Nag� el Ma?a??a
(24.0667°N, 32.8833°E)
Time: 01:16:40
(UTC+00:00)

Tiangong - Visible Passes

Search period start: 06 December 2023 00:00
Search period end: 16 December 2023 00:00
Orbit: 373 x 383 km, 41.5° (Epoch: 05 December)

Date Brightness Start Highest point End Pass type
(mag) Time Alt. Az. Time Alt. Az. Time Alt. Az.
07 Dec 1.4 15:58:00 10° WSW 15:58:56 11° SW 15:59:53 10° SSW visible
11 Dec 1.5 03:43:41 10° SSE 03:44:29 11° SE 03:45:16 10° ESE visible
13 Dec 0.4 03:14:36 10° SSW 03:17:05 22° SE 03:19:33 10° E visible
14 Dec -2.2 03:48:32 10° WSW 03:51:35 60° NW 03:54:40 10° NE visible
15 Dec -1.4 02:49:19 46° SSE 02:49:35 48° SE 02:52:35 10° ENE visible
